www.pogodaiklimat.ru

Погода и климат >> Архив погоды >> Россия >> Краснодарский край >> Лазаревское


ПОГОДА в Лазаревском

  • Прогноз погоды в Лазаревском
  • Монитор погоды в Лазаревском

АРХИВ ПОГОДЫ в Лазаревском

Время (UTC), дата Ветер
(напр.,м/с)
 
Видим.   Явления Облачность Т
(С)
Тd
(С)
f
(%)
Тe
(С)
Тes
(С)
Комфортность P
(гПа)
Po
(гПа)
Тmin
(С)
Tmax
(С)
R
(мм)
R24
(мм)
S
(см)
09 18.06 З 3 н/о н/о +27.1 +20.7 68 +34 +34 очень
душно
1009.3 1008.1
12 18.06 СЗ 2 н/о н/о +28.9 +20.9 62 +36 +36 очень
душно
1008.4 1007.2
15 18.06 З 1 н/о н/о +28.3 +21.0 65 +36 +36 очень
душно
1007.5 1006.3 +30.9
18 18.06 штиль 0 н/о н/о +26.2 +20.3 70 +32 +32 очень
душно
1007.9 1006.7
21 18.06 Ю 2 н/о н/о +23.8 +18.9 74 +29 +29 душно 1008.8 1007.6
00 19.06 ЮВ 4 н/о н/о +22.3 +16.6 70 +27 +27 душно 1008.9 1007.7
03 19.06 Ю 3 н/о н/о +21.8 +15.5 67 +25 +25 комфорт 1008.1 1006.9 +21.3
06 19.06 З 2 н/о н/о +26.8 +18.0 59 +31 +31 душно 1008.9 1007.7
09 19.06 З 2 н/о н/о +28.1 +20.3 63 +35 +35 очень
душно
1009.4 1008.2
12 19.06 З 2 н/о н/о +27.6 +21.3 69 +35 +35 очень
душно
1008.5 1007.3
15 19.06 СЗ 1 н/о н/о +27.7 +20.4 64 +34 +34 очень
душно
1007.7 1006.5 +28.9
18 19.06 Ю 1 н/о н/о +26.2 +20.7 72 +33 +33 очень
душно
1008.2 1007.0
21 19.06 Ю 1 н/о н/о +24.2 +20.2 78 +30 +30 очень
душно
1008.1 1006.9
00 20.06 Ю 3 н/о н/о +23.4 +19.3 78 +30 +30 очень
душно
1007.4 1006.2
03 20.06 Ю 4 н/о н/о +23.1 +17.7 72 +29 +29 очень
душно
1006.9 1005.7 +22.7
06 20.06 СЗ 1 н/о н/о +29.6 +17.8 49 +34 +34 очень
душно
1006.3 1005.1
09 20.06 З 1 н/о н/о +29.6 +16.6 46 +33 +33 душно 1006.5 1005.3
12 20.06 З 1 н/о н/о +30.8 +22.1 60 +40 +40 очень
душно
1006.1 1004.9
15 20.06 ЮВ 2 н/о н/о +28.6 +18.7 55 +34 +34 очень
душно
1004.8 1003.6 +31.1
18 20.06 Ю 2 н/о н/о +26.3 +20.2 69 +32 +32 очень
душно
1006.6 1005.4
21 20.06 Ю 2 н/о н/о +24.1 +19.1 74 +29 +29 душно 1007.4 1006.2
00 21.06 Ю 3 н/о н/о +22.6 +18.2 76 +28 +28 душно 1007.8 1006.6
06 21.06 З 2 н/о н/о +27.6 +20.9 67 +35 +35 очень
душно
1008.5 1007.3
09 21.06 З 2 н/о н/о +29.6 +21.3 61 +37 +37 очень
душно
1008.7 1007.5
12 21.06 Ю 4
{11}
н/о н/о +24.8 +18.7 69 +30 +30 душно 1009.1 1007.9
15 21.06 ЮВ 3 н/о н/о +25.3 +19.4 70 +31 +31 очень
душно
1008.1 1006.9 +30.3 0.3
18 21.06 Ю 3 н/о н/о +23.5 +19.5 78 +29 +29 душно 1009.0 1007.8
21 21.06 З 2 н/о н/о +21.8 +19.2 85 +27 +27 душно 1010.3 1009.1
00 22.06 Ю 3 н/о н/о +21.1 +18.7 86 +25 +25 комфорт 1009.3 1008.1
03 22.06 Ю 4 н/о н/о +21.3 +17.9 81 +25 +25 комфорт 1009.9 1008.7 +20.9 7
06 22.06 Ю 3 н/о н/о +24.0 +18.5 71 +28 +28 душно 1009.9 1008.7
09 22.06 З 1 н/о н/о +27.8 +19.7 61 +34 +34 очень
душно
1010.3 1009.1
12 22.06 З 1 н/о н/о +29.2 +19.3 55 +35 +35 очень
душно
1010.5 1009.3
15 22.06 З 1 н/о н/о +27.8 +20.7 65 +35 +35 очень
душно
1009.7 1008.5 +29.9
18 22.06 Ю 1 н/о н/о +25.0 +20.6 77 +31 +31 очень
душно
1010.2 1009.0
21 22.06 Ю 2 н/о н/о +23.3 +20.5 84 +31 +31 очень
душно
1011.1 1009.9
00 23.06 Ю 2 н/о н/о +22.7 +19.0 80 +29 +29 очень
душно
1011.6 1010.4
03 23.06 Ю 2 н/о н/о +22.7 +18.5 77 +28 +28 душно 1011.4 1010.2 +22.5
06 23.06 Ю 1 н/о н/о +27.1 +19.0 61 +32 +32 очень
душно
1011.9 1010.7
09 23.06 З 1 н/о н/о +26.8 +22.0 75 +35 +35 очень
душно
1012.4 1011.2
15 23.06 З 1 н/о н/о +28.1 +22.2 70 +37 +37 очень
душно
1011.5 1010.3 +29.9
21 23.06 Ю 2 н/о н/о +24.1 +19.6 76 +29 +29 душно 1012.5 1011.3
00 24.06 ЮВ 3 н/о н/о +23.5 +19.5 78 +29 +29 душно 1012.2 1011.0
03 24.06 ЮВ 3 н/о н/о +23.4 +19.9 81 +30 +30 очень
душно
1012.5 1011.3 +23.0
06 24.06 ЮВ 1 н/о н/о +26.8 +20.5 68 +33 +33 очень
душно
1013.1 1011.9
12 24.06 З 2 н/о н/о +28.6 +20.9 63 +36 +36 очень
душно
1013.4 1012.2

 

Местоположение метеостанции Лазаревское (Краснодарский край, Россия): широта 43.90 долгота 39.33 высота над уровнем моря 11 м.

В архиве по умолчанию представлена погода в Лазаревском за последнюю неделю. Архивные данные за месяц целиком и за предыдущие месяцы, начиная с января 2011 года, Вы можете получить, выбрав интересующий диапазон дат из раскрывающегося списка и нажав кнопку "Ввод!".


*Определитесь, кто Вы:
робот инопланетянин человек

Внимание! Время в таблицах - всемирное. Для получения местного времени необходимо прибавить поправку, которая равна 3 ч.

Смотрите также архив погоды в соседних городах и на ближайших метеорологических станциях:

Погода в Кичмае (Краснодарский край, Россия) (16 км)
Погода в Магри (Краснодарский край, Россия) (19 км)
Погода в Солох Ауле (Краснодарский край, Россия) (27 км)
Погода в Туапсе (Краснодарский край, Россия) (30 км)
Погода в Горном (Краснодарский край, Россия) (43 км)
Погода в Сочи (Краснодарский край, Россия) (50 км)
Погода в Гузерипле (Адыгея, Россия) (65 км)
Погода в Кепше (Краснодарский край, Россия) (66 км)
Погода в Джубге (Краснодарский край, Россия) (68 км)
Погода в Сочи аэропорт (Адлере) (Краснодарский край, Россия) (70 км)

Пояснения к столбцам:

Ветер - указаны скорость ветра в м/с - средняя за 10 мин, порывы в срок и между сроками (в фигурных скобках) и направление, откуда дует ветер: С - северный, СВ - северо-восточный, В - восточный, ЮВ - юго-восточный, Ю - южный, ЮЗ - юго-западный, З - западный, СЗ - северо-западный.
Видимость - горизонтальная дальность видимости в метрах или километрах. При видимости от 1 до 10 км при отсутствии осадков обычно наблюдается дымка, при ухудшении видимости до 1 км и менее - туман. В сухую погоду видимость может ухудшаться дымом, пылью или мглою.
Явления - указаны атмосферные явления, наблюдавшиеся в срок или в последний час перед сроком; фигурными скобками обозначены явления, наблюдавшиеся между сроками (за 1-3 часа до срока); квадратными скобками обозначены град или гололедные отложения с указанием их диаметра в мм.
Облачность - указаны через наклонную черту общая и нижняя облачность в баллах и высота нижней границы облаков в метрах; квадратными скобками обозначены формы облаков: Ci - перистые, Cs - перисто-слоистые, Cc - перисто-кучевые, Ac - высококучевые, As - высокослоистые, Sc - слоисто-кучевые, Ns - слоисто-дождевые, Cu - кучевые, Cb - кучево-дождевые. Подробнее классификацию облаков см. в Атласе облаков (PDF).
T - Температура воздуха - температура, измеренная на высоте 2 м над землей.
Td - Температура точки росы - температура, при понижении до которой содержащийся в воздухе водяной пар достигнет насыщения.
f - Относительная влажность воздуха - влажноcть воздуха, измеренная на высоте 2 м над землей.
Te - Эффективная температура - температура, которую ощущает одетый по сезону человек в тени. Характеристика душности погоды. При расчете учитывается влияние влажности воздуха и скорости ветра на теплоощущения человека.
Tes - Эффективная температура на солнце - температура, которую ощущает человек, с поправкой на солнечный нагрев. Характеристика знойности погоды. Зависит от высоты солнца над горизонтом, облачности и скорости ветра. Ночью, в пасмурную погоду, а также при ветре 12 м/с и более поправка равна нулю.
P - Атмосферное давление - приведенное к уровню моря атмосферное давление.
Po - Атмосферное давление - измеренное на уровне метеостанции атмосферное давление.
Tmin - Минимальная температура - минимум температуры воздуха на высоте 2 м над землей.
Tmax - Максимальная температура - максимум температуры воздуха на высоте 2 м над землей.
R - Количество осадков - Количество выпавших осадков за период времени, мм. При наведении курсора мыши на число - период времени, за который выпало указанное количество осадков.
R24 - Количество осадков - Количество выпавших осадков за 24 часа, мм.
S - Снежный покров - Высота снежного покрова, см. При наведении курсора мыши на число - состояние снежного покрова и степень покрытия местности в баллах.